Showing default

YAOGAN-30 A, 42945

Orbit data source: Space-Track

YAOGAN-30 A, 42945 is a payload satellite owned by PLA SSF (CN) in LEO that was launched on Fri, 29 Sep 2017 UTC via a CHANG ZHENG 2C launch vehicle from the Xichang Space Center, China (XSC). Payload-class satellites include a variety of spacecraft equipped with specific instruments for various scientific and technological missions. These include communications satellites like Starlink; space stations such as the ISS; scientific satellites like the Hubble; Earth observation satellites from companies like Planet Labs, Umbra, and HawkEye 360; GPS; miniature CubeSats for education and research; and military/defense satellites.

Loading next visibility...
Identifier
42945, 2017-058A
Orbit
LEO
Country
Flag of CNCN / PRC
Related business
Manufacturer
SECM
Mission
Operational Defense Sigint
Bus & Motor
Unknown
Mass
~500 kg wet, ~500 kg dry
Launch date (UTC)
2017-09-29 (8 years ago)
Launch vehicle
CHANG ZHENG 2C
Launch site
Xichang Space Center, China (XSC)
Object type
Payload
Rocket body
Debris
Shape & HBR
Box + 2 Pan, 0.5 m
Radar Cross Section
0.446 m², Large (>1 m²)

Expand to show TLE details & history
Last TLE update: 12 hours ago

TLE from 12 hours ago
0 YAOGAN-30 A
1 42945U 17058A   25261.28953045  .00003302  00000-0  25768-3 0  9996
2 42945  34.9968 244.8814 0003103 278.6784  81.3572 15.00699296434986
Epoch: 2025-09-18T06:56Z
TLE epoch observation values (Epoch: 2025-09-18T06:56:55.43Z)
Latitude
-0.00003°
Longitude
143.19713°
Altitude
563.333 km
Speed
7.582 km/s
True Right ascension
16h 19m 31s
True Declination
0° 00' 00"
Sunlit
Object was in daylight at epoch
Visualization orbit readout
Latitude
Unknown
Longitude
Unknown
Altitude
Unknown
Speed
Unknown
Apparent Right ascension
Unknown
Apparent Declination
Unknown
Sunlit
N/A
Visualization observer readout
Local Sidereal Time
11:18:20
Azimuth
Unknown
Elevation
Unknown
Doppler factor
Unknown
Orbital elements
Apogee altitude
570.113 km
Perigee altitude
565.802 km
Semi-major axis
6,946.095 km
Eccentricity
0.00031
Inclination
34.9968°
RAAN
244.8814°
Arg. of periapsis
278.6784°
True anomaly
81.39236°
Mean anomaly
81.3572°
Eccentric anomaly
81.37478°
Mean motion
3.74914 °/min
Orbital period
96.02 mins
BSTAR
0.00025768
Loading maneuver chart data...
Computing Atmospheric mass density...
Loading historical data...
Loading historical data...
Loading historical data...
Loading historical data...
Loading historical data...
Loading historical data...
Loading historical data...
Other satellites on launch #58 in the year 2017 (2017-09-29 UTC)

Documentation

Showing up to 5 results
|